Regional Weather Roundup
Issued by NWS

Home | Current Version | Previous Version | Graphics & Text | Print | Product List | Glossary On
Versions: 1 2 3 4 5 6 7 8 9 10 11 12 13 14 15 16 17 18 19 20 21 22 23 24 25 26 27 28 29 30 31 32 33 34 35 36 37 38 39 40 41 42 43 44 45 46 47 48 49 50
000
ASUS43 KDMX 280007
RWRIA

WEATHER ROUNDUP FOR IOWA
NATIONAL WEATHER SERVICE DES MOINES IA
600 PM CST TUE JAN 27 2015

NOTE: "FAIR" INDICATES FEW OR NO CLOUDS BELOW 12,000 FEET WITH NO
SIGNIFICANT WEATHER AND/OR OBSTRUCTIONS TO VISIBILITY.

* - THESE STATIONS ARE NOT NWS STATIONS...THUS NOT UNDER NWS
QUALITY CONTROL.  THEY ALSO DO NOT REPORT WEATHER SUCH
AS PRECIPITATION OR FOG.

IAZ001>003-012>014-020>022-031>034-043>046-280100-
   NORTHWEST IOWA

CITY           SKY/WX    TMP DP  RH WIND       PRES   REMARKS
CARROLL *      CLEAR     37  32  81 SE10      30.08S WCI  30
CHEROKEE *     CLEAR     38  35  89 SE7       30.05S WCI  32
DENISON *      CLEAR     41  34  75 E6        30.04S
LE MARS *      CLEAR     41  36  81 SE7       30.02F
ORANGE CITY *  CLEAR     37  34  87 SE5       30.02S WCI  34
SHELDON *      CLEAR     37  36  93 SE12      30.02S WCI  30
SIOUX CITY     CLEAR     42  34  73 SE9       30.02S
6HR MIN TEMP:  42; 6HR MAX TEMP:  49;

SPENCER        PTCLDY    37  33  85 SE12      30.06F WCI  29
6HR MIN TEMP:  37; 6HR MAX TEMP:  42;

STORM LAKE *   CLEAR     36  34  93 SE12      30.06S WCI  27
$$

IAZ055>058-069>071-079>083-090>094-280100-
   SOUTHWEST IOWA

CITY           SKY/WX    TMP DP  RH WIND       PRES   REMARKS
ATLANTIC *     CLEAR     45  32  61 SE6       30.07R
AUDUBON *      CLEAR     36  30  80 E6        30.08S WCI  31
CLARINDA *     CLEAR     46  30  53 SE6       30.09R
COUNCIL BLFS * CLEAR     43  32  65 SE9       30.04R
CRESTON *      CLEAR     36  28  75 E10       30.09S WCI  28
HARLAN  *      CLEAR     41  34  75 SE6       30.09S
LAMONI         CLEAR     42  29  59 SE5       30.11R
6HR MIN TEMP:  42; 6HR MAX TEMP:  49;

RED OAK *      CLEAR     45  30  57 SE7       30.07R
SHENANDOAH *   CLEAR     45  30  57 SE6       30.07R
$$

IAZ047>049-059>061-072>074-084-280100-
   CENTRAL IOWA

CITY           SKY/WX    TMP DP  RH WIND       PRES   REMARKS
AMES           CLEAR     35  29  78 SE9       30.14R WCI  28
6HR MIN TEMP:  35; 6HR MAX TEMP:  43;

ANKENY *       CLEAR     36  30  80 SE10G17   30.15R WCI  28
CHARITON *     CLEAR     39  32  75 E12       30.14R WCI  32
DES MOINES     PTCLDY    39  30  70 E12       30.15R WCI  32
6HR MIN TEMP:  39; 6HR MAX TEMP:  47;

GRINNELL*      CLOUDY    32  28  86 E8        30.18S WCI  25
KNOXVILLE *    CLEAR     34  28  80 E9        30.14S WCI  26
MARSHALLTOWN   CLOUDY    32  28  85 E9        30.16S WCI  24
6HR MIN TEMP:  32; 6HR MAX TEMP:  37;

PELLA *        CLEAR     33  29  84 E6        30.18S WCI  28
PERRY *          N/A     37  32  81 E10       30.10S WCI  30
$$

IAZ004>006-015-016-023>025-035-036-280100-
   NORTH CENTRAL IOWA

CITY           SKY/WX    TMP DP  RH WIND       PRES   REMARKS
ALGONA *       CLEAR     36  34  93 SE12      30.10F WCI  27
CLARION *        N/A     34  34 100 SE13      30.12F WCI  25
ESTHERVILLE    MOCLDY    34  31  88 SE12      30.07F WCI  25
6HR MIN TEMP:  34; 6HR MAX TEMP:  38;

FORT DODGE *   CLEAR     36  28  75 E10       30.12R WCI  28
MASON CITY     CLOUDY    32  28  85 SE12      30.14F WCI  23
6HR MIN TEMP:  32; 6HR MAX TEMP:  35; 6HR PCP: TRACE;

FOREST CITY *  CLOUDY    34  28  80 SE8       30.12F WCI  27
IOWA FALLS *   CLOUDY    32  30  93 E10       30.15F WCI  24
$$

IAZ007>011-017>019-026>030-037>042-050>054-066-280100-
   NORTHEAST IOWA

CITY           SKY/WX    TMP DP  RH WIND       PRES   REMARKS
CEDAR RAPIDS   CLOUDY    30  25  81 E6        30.18F WCI  24
6HR MIN TEMP:  30; 6HR MAX TEMP:  32;

CHARLES CITY * CLOUDY    32  28  86 SE10      30.16S WCI  24
CLINTON *      CLOUDY    27  21  80 CALM      30.25F
DECORAH *      CLOUDY    28  23  80 SE5       30.17R WCI  23
DUBUQUE        CLOUDY    26  20  77 SE5       30.20F WCI  20
6HR MIN TEMP:  25; 6HR MAX TEMP:  28;

MONTICELLO *   CLOUDY    28  25  86 E5        30.20F WCI  23
OELWEIN *      CLOUDY    30  25  80 SE7       30.18F WCI  23
WATERLOO       CLOUDY    30  26  85 SE8       30.18S WCI  22
6HR MIN TEMP:  30; 6HR MAX TEMP:  33;

$$

IAZ064-065-067-068-078-280100-
   EAST CENTRAL IOWA

CITY           SKY/WX    TMP DP  RH WIND       PRES   REMARKS
DAVENPORT      CLOUDY    26  20  77 SE5       30.23S WCI  20
6HR MIN TEMP:  26; 6HR MAX TEMP:  29;

IOWA CITY      CLOUDY    30  25  81 E8        30.23S WCI  22
6HR MIN TEMP:  30; 6HR MAX TEMP:  33;

MT. PLEASANT * CLOUDY    30  27  86 E8        30.22R WCI  23
MUSCATINE *    CLOUDY    30  25  80 E7        30.23F WCI  23
QUAD CITIES    CLOUDY    28  22  78 E7        30.24S WCI  21
6HR MIN TEMP:  27; 6HR MAX TEMP:  30;

$$

IAZ062-063-075>077-085>089-095>099-280100-
   SOUTHEAST IOWA

CITY           SKY/WX    TMP DP  RH WIND       PRES   REMARKS
BURLINGTON     CLOUDY    30  25  81 NE7       30.21S WCI  23
6HR MIN TEMP:  30; 6HR MAX TEMP:  34;

FAIRFIELD *    CLOUDY    32  27  80 E8        30.20S WCI  25
FORT MADISON * CLOUDY    30  27  86 E8        30.22S WCI  23
KEOKUK *       CLOUDY    32  28  86 E9        30.21R WCI  24
OSKALOOSA *      N/A     32  28  86 E7        30.19S WCI  25
CENTERVILLE *  CLEAR     36  32  87 E8        30.16S WCI  29
OTTUMWA        CLEAR     32  28  85 E8        30.18S WCI  25
6HR MIN TEMP:  32; 6HR MAX TEMP:  39;

WASHINGTON *   CLOUDY    32  32 100 E9        30.21R WCI  24
$$

ABBREVIATIONS USED IN REMARKS
   TC - TEMPERATURES IN CELSIUS
  WCI - WIND CHILL INDEX
   HX - HEAT INDEX
  VSB - VISIBILITY
$$




USA.gov is the U.S. government's official web portal to all federal, state and local government web resources and services.